Bad Axe, MI

11:43 PM EST on November 19, 2019 (GMT -0500)
Huron County Memorial

Weather History for KBAX - October, 2019

Change the Weather History Date:

Tuesday, October 22, 2019

  Actual Average (WUND) Record (WUND)
Temperature  
Mean Temperature 52 °F -  
Max Temperature 58 °F - - (-1)
Min Temperature 46 °F - - (-1)
Degree Days  
Heating Degree Days 13    
Growing Degree Days 2 (Base 50)    
Moisture  
Dew Point 43 °F    
Average Humidity 74    
Maximum Humidity 93    
Minimum Humidity 53    
Precipitation  
Precipitation 0.00 in - - ()
Sea Level Pressure  
Sea Level Pressure 29.60 in    
Wind  
Wind Speed 12 mph ()    
Max Wind Speed 25 mph    
Max Gust Speed 37 mph    
Visibility 9.9 miles    
Events Rain    
Averages and records for this station are not official NWS values.
T = Trace of Precipitation, MM = Missing Value Source: Averaged Metar Reports

Daily Weather History Graph

Daily Weather History Graph

Search for Another Location

Airport or City:

Astronomy

Oct. 22, 2019 Rise Set
Actual Time 7:54 AM EDT 6:37 PM EDT
Civil Twilight 7:25 AM EDT 7:06 PM EDT
Nautical Twilight 6:51 AM EDT 7:40 PM EDT
Astronomical Twilight 6:18 AM EDT 8:13 PM EDT
Moon 12:46 AM EDT (10/22) 4:01 PM EDT (10/22)
Length of Visible Light 11h 41m
Length of Day
10h 42m
Last Quarter, 37% of the Moon is Illuminated
Oct 22
Last Quarter
Oct 27
New
Nov 4
First Quarter
Nov 12
Full
Nov 19
Last Quarter

Hourly Weather History & Observations

Time (EDT) Temp. Windchill Dew Point Humidity Pressure Visibility Wind Dir Wind Speed Gust Speed Precip Events Conditions
12:15 AM 58.1 °F - 52.0 °F 80% 29.59 in 10.0 mi South 12.7 mph 19.6 mph N/A   Overcast
12:16 AM 58.1 °F - 52.0 °F 80% 29.59 in 10.0 mi South 12.7 mph 19.6 mph N/A   Overcast
12:35 AM 57.7 °F - 52.2 °F 82% 29.60 in 10.0 mi South 11.5 mph 19.6 mph N/A   Overcast
12:59 AM 57.7 °F - 53.4 °F 85% 29.60 in 10.0 mi South 10.4 mph 17.3 mph N/A   Overcast
1:17 AM 58.1 °F - 54.1 °F 87% 29.60 in 10.0 mi South 10.4 mph 18.4 mph N/A   Overcast
1:35 AM 58.1 °F - 54.7 °F 88% 29.60 in 10.0 mi South 9.2 mph - N/A   Mostly Cloudy
1:36 AM 58.1 °F - 54.7 °F 88% 29.60 in 10.0 mi South 9.2 mph - N/A   Mostly Cloudy
1:55 AM 58.1 °F - 55.4 °F 91% 29.60 in 10.0 mi South 9.2 mph - N/A   Overcast
1:56 AM 58.1 °F - 55.2 °F 90% 29.60 in 10.0 mi South 10.4 mph - N/A   Overcast
2:15 AM 57.2 °F - 54.7 °F 91% 29.59 in 10.0 mi South 10.4 mph - N/A   Scattered Clouds
2:20 AM 57.2 °F - 54.9 °F 92% 29.59 in 10.0 mi South 9.2 mph - N/A   Scattered Clouds
2:37 AM 57.2 °F - 55.2 °F 93% 29.59 in 10.0 mi South 10.4 mph - N/A   Scattered Clouds
2:55 AM 55.4 °F - 51.4 °F 87% 29.62 in 4.0 mi SW 11.5 mph 23.0 mph N/A Rain Rain
2:56 AM 55.2 °F - 51.3 °F 87% 29.62 in 4.0 mi SW 10.4 mph 21.9 mph N/A Rain Rain
3:15 AM 54.1 °F - 48.2 °F 80% 29.62 in 10.0 mi SW 10.4 mph - N/A   Mostly Cloudy
3:35 AM 53.8 °F - 46.8 °F 77% 29.61 in 10.0 mi SW 9.2 mph - N/A   Overcast
3:58 AM 52.5 °F - 46.9 °F 81% 29.61 in 10.0 mi SW 5.8 mph - N/A   Overcast
4:16 AM 52.2 °F - 46.8 °F 82% 29.61 in 10.0 mi SSW 6.9 mph - N/A   Mostly Cloudy
4:35 AM 50.7 °F - 46.0 °F 84% 29.60 in 10.0 mi South 5.8 mph - N/A   Mostly Cloudy
4:36 AM 50.5 °F - 46.0 °F 85% 29.60 in 10.0 mi South 5.8 mph - N/A   Mostly Cloudy
4:55 AM 49.6 °F - 46.2 °F 88% 29.60 in 10.0 mi South 6.9 mph - N/A   Mostly Cloudy
4:56 AM 49.6 °F - 46.2 °F 88% 29.60 in 10.0 mi South 8.1 mph - N/A   Mostly Cloudy
5:19 AM 51.4 °F - 45.1 °F 79% 29.60 in 10.0 mi SSW 9.2 mph 18.4 mph N/A   Scattered Clouds
5:55 AM 48.7 °F - 43.2 °F 81% 29.60 in 10.0 mi South 8.1 mph - N/A   Clear
6:15 AM 47.8 °F - 42.1 °F 80% 29.59 in 10.0 mi South 8.1 mph - N/A   Clear
6:16 AM 47.7 °F - 42.1 °F 81% 29.59 in 10.0 mi South 8.1 mph - N/A   Clear
6:35 AM 48.4 °F - 42.4 °F 80% 29.59 in 10.0 mi South 9.2 mph - N/A   Clear
6:57 AM 48.2 °F - 42.6 °F 81% 29.58 in 10.0 mi South 9.2 mph - N/A   Clear
7:16 AM 47.7 °F - 42.4 °F 82% 29.58 in 10.0 mi South 8.1 mph - N/A   Clear
7:35 AM 48.2 °F - 42.4 °F 80% 29.58 in 10.0 mi South 11.5 mph 16.1 mph N/A   Clear
7:36 AM 48.2 °F - 42.4 °F 80% 29.58 in 10.0 mi South 11.5 mph 16.1 mph N/A   Clear
7:55 AM 48.4 °F - 42.8 °F 81% 29.59 in 10.0 mi South 11.5 mph - N/A   Clear
7:56 AM 48.4 °F - 42.8 °F 81% 29.59 in 10.0 mi South 11.5 mph - N/A   Clear
8:19 AM 48.2 °F - 42.8 °F 82% 29.59 in 10.0 mi South 12.7 mph - N/A   Clear
8:37 AM 49.1 °F - 43.2 °F 80% 29.59 in 10.0 mi South 15.0 mph 19.6 mph N/A   Clear
8:55 AM 50.0 °F - 43.5 °F 78% 29.58 in 10.0 mi South 13.8 mph 19.6 mph N/A   Clear
9:15 AM 50.9 °F - 43.7 °F 76% 29.58 in 10.0 mi South 17.3 mph 23.0 mph N/A   Clear
9:35 AM 51.4 °F - 43.9 °F 75% 29.58 in 10.0 mi South 16.1 mph 23.0 mph N/A   Clear
9:36 AM 51.6 °F - 43.9 °F 75% 29.58 in 10.0 mi South 16.1 mph 23.0 mph N/A   Clear
9:55 AM 52.2 °F - 44.2 °F 74% 29.58 in 10.0 mi SSW 20.7 mph 24.2 mph N/A   Clear
10:00 AM 52.3 °F - 44.1 °F 73% 29.57 in 10.0 mi SSW 18.4 mph 24.2 mph N/A   Clear
10:18 AM 53.1 °F - 44.1 °F 71% 29.57 in 10.0 mi South 15.0 mph 24.2 mph N/A   Clear
10:36 AM 53.8 °F - 43.5 °F 68% 29.56 in 10.0 mi SSW 17.3 mph 27.6 mph N/A   Clear
10:55 AM 54.7 °F - 42.4 °F 63% 29.56 in 10.0 mi SSW 13.8 mph 24.2 mph N/A   Clear
11:16 AM 55.4 °F - 41.4 °F 59% 29.55 in 10.0 mi SSW 18.4 mph 31.1 mph N/A   Scattered Clouds
11:39 AM 55.8 °F - 40.8 °F 57% 29.55 in 10.0 mi SSW 20.7 mph 34.5 mph N/A   Mostly Cloudy
11:57 AM 55.8 °F - 40.1 °F 56% 29.54 in 10.0 mi SSW 23.0 mph 35.7 mph N/A   Mostly Cloudy
12:15 PM 57.2 °F - 40.8 °F 54% 29.54 in 10.0 mi SW 20.7 mph 29.9 mph N/A   Overcast
12:35 PM 56.7 °F - 40.1 °F 54% 29.54 in 10.0 mi SSW 25.3 mph 33.4 mph N/A   Overcast
12:36 PM 56.5 °F - 40.1 °F 54% 29.54 in 10.0 mi SSW 24.2 mph 33.4 mph N/A   Overcast
12:55 PM 55.8 °F - 40.3 °F 56% 29.55 in 10.0 mi SW 21.9 mph 31.1 mph N/A   Overcast
1:00 PM 55.8 °F - 39.9 °F 55% 29.55 in 10.0 mi SSW 20.7 mph 31.1 mph N/A   Overcast
1:17 PM 54.7 °F - 39.4 °F 56% 29.54 in 10.0 mi SW 17.3 mph 31.1 mph N/A   Overcast
1:36 PM 54.5 °F - 39.4 °F 57% 29.54 in 10.0 mi SW 16.1 mph 28.8 mph N/A   Overcast
1:55 PM 54.7 °F - 39.2 °F 56% 29.55 in 10.0 mi SW 16.1 mph 28.8 mph N/A   Overcast
1:56 PM 54.7 °F - 39.4 °F 56% 29.55 in 10.0 mi SW 17.3 mph 28.8 mph N/A   Overcast
2:15 PM 53.8 °F - 39.0 °F 57% 29.56 in 10.0 mi SW 13.8 mph 27.6 mph N/A   Overcast
2:16 PM 53.8 °F - 39.2 °F 58% 29.56 in 10.0 mi SW 15.0 mph 27.6 mph N/A   Overcast
2:39 PM 53.4 °F - 38.5 °F 57% 29.55 in 10.0 mi SSW 24.2 mph 36.8 mph N/A   Overcast
2:57 PM 55.6 °F - 38.8 °F 53% 29.55 in 10.0 mi SSW 19.6 mph 32.2 mph N/A   Mostly Cloudy
3:15 PM 56.1 °F - 39.0 °F 53% 29.55 in 10.0 mi SSW 21.9 mph 28.8 mph N/A   Mostly Cloudy
3:16 PM 56.1 °F - 39.0 °F 53% 29.55 in 10.0 mi SSW 18.4 mph 28.8 mph N/A   Mostly Cloudy
3:35 PM 54.1 °F - 39.0 °F 57% 29.56 in 10.0 mi SSW 18.4 mph 25.3 mph N/A   Overcast
3:36 PM 54.0 °F - 39.0 °F 57% 29.56 in 10.0 mi SSW 19.6 mph 25.3 mph N/A   Overcast
3:55 PM 52.0 °F - 41.7 °F 68% 29.57 in 10.0 mi SSW 20.7 mph 32.2 mph N/A Rain Rain
4:00 PM 50.9 °F - 41.7 °F 71% 29.57 in 10.0 mi SSW 15.0 mph 32.2 mph N/A Rain Light Rain
4:18 PM 50.9 °F - 43.2 °F 75% 29.58 in 10.0 mi SW 16.1 mph 31.1 mph N/A   Overcast
4:36 PM 51.4 °F - 41.0 °F 68% 29.59 in 10.0 mi SW 17.3 mph 31.1 mph N/A   Overcast
4:55 PM 51.6 °F - 41.4 °F 68% 29.59 in 10.0 mi SSW 18.4 mph 26.5 mph N/A   Overcast
5:15 PM 51.1 °F - 41.0 °F 68% 29.59 in 10.0 mi SW 12.7 mph 26.5 mph N/A   Overcast
5:16 PM 51.1 °F - 41.2 °F 69% 29.59 in 10.0 mi SW 12.7 mph 26.5 mph N/A   Overcast
5:39 PM 50.7 °F - 41.5 °F 71% 29.60 in 10.0 mi SSW 20.7 mph 27.6 mph N/A   Overcast
5:57 PM 48.6 °F - 41.7 °F 77% 29.61 in 10.0 mi SW 13.8 mph - N/A   Light Drizzle
6:15 PM 48.6 °F - 41.9 °F 78% 29.61 in 10.0 mi SSW 12.7 mph 21.9 mph N/A   Overcast
6:35 PM 48.4 °F - 41.9 °F 78% 29.62 in 10.0 mi SW 12.7 mph 21.9 mph N/A   Overcast
6:36 PM 48.4 °F - 41.9 °F 78% 29.62 in 10.0 mi SW 15.0 mph 21.9 mph N/A   Overcast
6:55 PM 47.5 °F - 42.3 °F 82% 29.62 in 10.0 mi SW 10.4 mph - N/A   Overcast
7:18 PM 47.3 °F - 42.4 °F 83% 29.64 in 10.0 mi SW 15.0 mph 21.9 mph N/A   Overcast
7:36 PM 47.7 °F - 41.2 °F 78% 29.64 in 10.0 mi SW 20.7 mph 28.8 mph N/A   Overcast
7:55 PM 46.0 °F 40.6 °F 40.5 °F 81% 29.65 in 10.0 mi SW 11.5 mph 24.2 mph N/A   Overcast
8:15 PM 46.4 °F 40.4 °F 40.1 °F 79% 29.65 in 10.0 mi SW 13.8 mph 20.7 mph N/A   Overcast
8:16 PM 46.4 °F 40.4 °F 40.1 °F 79% 29.65 in 10.0 mi SW 13.8 mph 20.7 mph N/A   Overcast
8:39 PM 46.4 °F 40.1 °F 40.3 °F 79% 29.66 in 10.0 mi SW 15.0 mph 24.2 mph N/A   Overcast
9:15 PM 46.8 °F - 40.3 °F 78% 29.67 in 10.0 mi SW 13.8 mph 19.6 mph N/A   Overcast
9:16 PM 46.8 °F - 40.5 °F 79% 29.67 in 10.0 mi SW 13.8 mph 19.6 mph N/A   Overcast
9:35 PM 46.9 °F - 39.9 °F 77% 29.67 in 10.0 mi SW 13.8 mph 24.2 mph N/A   Overcast
9:36 PM 46.9 °F - 39.9 °F 77% 29.67 in 10.0 mi SW 16.1 mph 24.2 mph N/A   Overcast
9:55 PM 46.8 °F - 39.6 °F 76% 29.67 in 10.0 mi SW 12.7 mph 18.4 mph N/A   Overcast
10:00 PM 46.9 °F - 39.4 °F 75% 29.67 in 10.0 mi SW 11.5 mph 18.4 mph N/A   Overcast
10:18 PM 47.3 °F - 39.2 °F 73% 29.68 in 10.0 mi SW 12.7 mph 20.7 mph N/A   Overcast
10:36 PM 47.1 °F - 39.2 °F 74% 29.68 in 10.0 mi SW 12.7 mph 23.0 mph N/A   Overcast
10:55 PM 46.9 °F - 39.2 °F 74% 29.68 in 10.0 mi SW 11.5 mph 19.6 mph N/A   Overcast
10:56 PM 46.9 °F - 39.2 °F 74% 29.69 in 10.0 mi SW 12.7 mph 19.6 mph N/A   Overcast
11:15 PM 46.9 °F - 39.2 °F 74% 29.69 in 10.0 mi SW 13.8 mph 19.6 mph N/A   Overcast
11:16 PM 46.9 °F - 39.2 °F 74% 29.69 in 10.0 mi SW 12.7 mph 19.6 mph N/A   Overcast
11:39 PM 46.2 °F 40.1 °F 39.7 °F 78% 29.69 in 10.0 mi SW 13.8 mph 21.9 mph N/A   Overcast
11:57 PM 46.0 °F 41.4 °F 39.9 °F 79% 29.68 in 10.0 mi SW 9.2 mph 16.1 mph N/A   Overcast